Main page
METAR-TAF:

METAR-TAF

Airports :

Padua Airport

Padua, Italy

latitude: 45-23-45N, longitude: 11-50-53E, elevation: 13 m

Current weather observation

The report was made 23 minutes ago, at 07:00 UTC
Wind 2 kt from variable directions
Temperature -1°C
Humidity 86%
Pressure 1020 hPa
Visibility: 9000 m

METAR: LIPU 160700Z VRB02KT 9000 NSC M01/M03 Q1020

Time: 08:23 (07:23 UTC)


TAF: missing

Weather observations and forecasts of more than 4000 airports (METAR and TAF reports).

The available stations are represented by yellow and red dots on the map.

Hover mouse over dot to see the name of the station.

Then click to see weather observations and forecasts.

To change the map : click on the green buttons with a black cross to zoom in, on the green button with a dash to zoom out, or on the green arrows for adjacent maps.


METAR-TAF: